Bakersfield, CA

4:11 AM PST on November 20, 2019 (GMT -0800)
Meadows

Weather History for KBFL - October, 2019

Change the Weather History Date:

Monday, October 21, 2019

  Actual Average Record
Temperature  
Mean Temperature 66 °F 65 °F  
Max Temperature 79 °F 77 °F 94 °F (1964)
Min Temperature 53 °F 53 °F 32 °F (1906)
Degree Days  
Heating Degree Days 0    
Month to date heating degree days 17  
Since 1 July heating degree days 26  
Cooling Degree Days 1    
Month to date cooling degree days 42  
Year to date cooling degree days 2479  
Growing Degree Days 16 (Base 50)    
Moisture  
Dew Point 45 °F    
Average Humidity 49    
Maximum Humidity 66    
Minimum Humidity 32    
Precipitation  
Precipitation 0.00 in 0.01 in 0.21 in (1941)
Month to date precipitation 0.00 0.15  
Year to date precipitation 6.52 4.66  
Snow  
Snow 0.00 in - - ()
Month to date snowfall 0.0  
Since 1 July snowfall 0.0  
Since 1 September snowfall 0.0  
Snow Depth 0.00 in    
Sea Level Pressure  
Sea Level Pressure 30.13 in    
Wind  
Wind Speed 3 mph (SE)    
Max Wind Speed 9 mph    
Max Gust Speed 11 mph    
Visibility 10 miles    
Events      
T = Trace of Precipitation, MM = Missing Value Source: NWS Daily Summary

Daily Weather History Graph

Daily Weather History Graph

Search for Another Location

Airport or City:

Astronomy

Oct. 21, 2019 Rise Set
Actual Time 7:07 AM PDT 6:13 PM PDT
Civil Twilight 6:41 AM PDT 6:39 PM PDT
Nautical Twilight 6:12 AM PDT 7:09 PM PDT
Astronomical Twilight 5:42 AM PDT 7:38 PM PDT
Moon No Moon Rise 2:22 PM PDT (10/21)
Length of Visible Light 11h 57m
Length of Day
11h 05m
Waning Gibbous, 47% of the Moon is Illuminated
Oct 21
Waning Gibbous
Oct 27
New
Nov 4
First Quarter
Nov 12
Full
Nov 19
Last Quarter

Hourly Weather History & Observations

Time (PDT) Temp. Dew Point Humidity Pressure Visibility Wind Dir Wind Speed Gust Speed Precip Events Conditions
12:54 AM 59.0 °F 43.0 °F 55% 30.10 in 10.0 mi Calm Calm - N/A   Clear
1:54 AM 57.0 °F 43.0 °F 59% 30.10 in 10.0 mi Calm Calm - N/A   Clear
2:54 AM 55.9 °F 44.1 °F 64% 30.10 in 10.0 mi ENE 3.5 mph - N/A   Clear
3:54 AM 55.0 °F 42.1 °F 62% 30.10 in 10.0 mi Calm Calm - N/A   Clear
4:54 AM 54.0 °F 43.0 °F 66% 30.10 in 10.0 mi Calm Calm - N/A   Clear
5:54 AM 57.0 °F 43.0 °F 59% 30.11 in 10.0 mi ESE 5.8 mph - N/A   Clear
6:54 AM 55.0 °F 43.0 °F 64% 30.13 in 10.0 mi SE 3.5 mph - N/A   Clear
7:54 AM 57.0 °F 43.0 °F 59% 30.14 in 10.0 mi ESE 5.8 mph - N/A   Clear
8:54 AM 61.0 °F 43.0 °F 52% 30.16 in 10.0 mi SE 8.1 mph - N/A   Clear
9:54 AM 64.9 °F 43.0 °F 45% 30.16 in 10.0 mi Calm Calm - N/A   Clear
10:54 AM 69.1 °F 44.1 °F 40% 30.16 in 10.0 mi South 3.5 mph - N/A   Clear
11:54 AM 71.1 °F 45.0 °F 39% 30.15 in 10.0 mi West 4.6 mph - N/A   Clear
12:54 PM 75.0 °F 46.0 °F 36% 30.13 in 10.0 mi WNW 5.8 mph - N/A   Clear
1:54 PM 75.9 °F 45.0 °F 33% 30.10 in 10.0 mi Calm Calm - N/A   Clear
2:54 PM 78.1 °F 46.0 °F 32% 30.08 in 10.0 mi SW 5.8 mph - N/A   Clear
3:54 PM 78.1 °F 46.0 °F 32% 30.09 in 10.0 mi WNW 4.6 mph - N/A   Clear
4:54 PM 78.1 °F 46.9 °F 33% 30.09 in 10.0 mi NW 6.9 mph - N/A   Clear
5:54 PM 75.9 °F 46.9 °F 36% 30.09 in 10.0 mi NW 4.6 mph - N/A   Clear
6:54 PM 71.1 °F 46.9 °F 42% 30.11 in 10.0 mi NW 3.5 mph - N/A   Clear
7:54 PM 70.0 °F 46.0 °F 42% 30.13 in 10.0 mi Calm Calm - N/A   Clear
8:54 PM 66.0 °F 45.0 °F 47% 30.15 in 10.0 mi ENE 3.5 mph - 0.00 in   Clear
9:54 PM 64.9 °F 45.0 °F 48% 30.16 in 10.0 mi Calm Calm - N/A   Clear
10:54 PM 66.0 °F 46.9 °F 50% 30.18 in 10.0 mi Calm Calm - N/A   Clear
11:54 PM 64.9 °F 46.0 °F 50% 30.17 in 10.0 mi East 5.8 mph - N/A   Clear